Location: Madrid
(40.4000°N, 3.6830°W)
Time: 01:40:51
(UTC+02:00)

ISS - Pass Details

Date: 19 July 2019
Orbit: 409 x 418 km, 51.6° (Epoch: 23 July)

Event Time Altitude Azimuth Distance (km) Brightness Sun altitude
Rises 23:46:25 0° 268° (W) 2,349 0.6 -19.0°
Reaches altitude 10° 23:48:49 10° 284° (WNW) 1,486 -0.3 -19.3°
Maximum altitude 23:51:30 22° 338° (NNW) 958 -1.1 -19.6°
Drops below altitude 10° 23:54:11 10° 31° (NNE) 1,486 -0.7 -19.9°
Sets 23:56:35 0° 48° (NE) 2,348 0.1 -20.2°
